Columbus, OH

10:01 PM EST on February 13, 2016 (GMT -0500)
Port Columbus International

Weather History for KCMH - November, 2012

Change the Weather History Date:

Monday, November 12, 2012

  Actual Average Record
Temperature  
Mean Temperature 48 °F 46 °F  
Max Temperature 63 °F 54 °F 75 °F (1949)
Min Temperature 33 °F 37 °F 16 °F (1911)
Degree Days  
Heating Degree Days 17 19  
Month to date heating degree days 234 206  
Since 1 July heating degree days 671 600  
Cooling Degree Days 0 0  
Month to date cooling degree days 0 0  
Year to date cooling degree days 1439 1024  
Moisture  
Dew Point 42 °F    
Average Humidity 64    
Maximum Humidity 93    
Minimum Humidity 34    
Precipitation  
Precipitation 0.60 in 0.10 in 0.92 in (1925)
Month to date precipitation 0.64 1.20  
Year to date precipitation 31.55 34.34  
Snow  
Snow 0.00 in 0.00 in 2.20 in (1886)
Month to date snowfall 0.0 0.2  
Since 1 July snowfall 0.6 0.4  
Since 1 September snowfall 0.6 0.4  
Snow Depth 0.00 in    
Sea Level Pressure  
Sea Level Pressure 30.14 in    
Wind  
Wind Speed 15 mph (WSW)    
Max Wind Speed 30 mph    
Max Gust Speed 37 mph    
Visibility 8 miles    
Events Rain    
T = Trace of Precipitation, MM = Missing Value Source: NWS Daily Summary

Daily Weather History Graph

Daily Weather History Graph

Search for Another Location

Airport or City:

Trip Planner

Search our weather history database for the weather conditions in past years. The results will help you decide how hot, cold, wet, or windy it might be!

Date:

Astronomy

Nov. 12, 2012 Rise Set
Actual Time 7:13 AM EST 5:17 PM EST
Civil Twilight 6:44 AM EST 5:46 PM EST
Nautical Twilight 6:12 AM EST 6:18 PM EST
Astronomical Twilight 5:40 AM EST 6:50 PM EST
Moon 5:37 AM EST (11/12) 4:21 PM EST (11/12)
Length of Visible Light 11h 01m
Length of Day
10h 03m
Waning Crescent, 2% of the Moon is Illuminated
Nov 12
Waning Crescent
Nov 13
New
Nov 20
First Quarter
Nov 28
Full
Dec 6
Last Quarter

Hourly Weather History & Observations

Time (EST) Temp. Windchill Dew Point Humidity Pressure Visibility Wind Dir Wind Speed Gust Speed Precip Events Conditions
12:51 AM 62.1 °F - 34.0 °F 35% 30.12 in 10.0 mi South 13.8 mph - N/A   Overcast
1:51 AM 62.1 °F - 39.0 °F 43% 30.12 in 10.0 mi South 11.5 mph - N/A   Mostly Cloudy
2:51 AM 60.8 °F - 41.0 °F 48% 30.12 in 10.0 mi South 10.4 mph - N/A   Mostly Cloudy
3:51 AM 60.1 °F - 42.1 °F 51% 30.09 in 10.0 mi SSE 13.8 mph - N/A   Mostly Cloudy
4:51 AM 62.1 °F - 44.1 °F 52% 30.06 in 10.0 mi SSE 18.4 mph 25.3 mph N/A   Mostly Cloudy
5:51 AM 62.6 °F - 46.4 °F 55% 30.05 in 10.0 mi SSE 19.6 mph - N/A   Overcast
6:51 AM 62.6 °F - 46.4 °F 55% 30.07 in 10.0 mi South 20.7 mph 26.5 mph N/A   Overcast
7:51 AM 61.0 °F - 48.9 °F 64% 30.07 in 10.0 mi South 11.5 mph 19.6 mph 0.00 in Rain Light Rain
8:51 AM 57.0 °F - 53.1 °F 87% 30.07 in 4.0 mi South 18.4 mph 25.3 mph 0.13 in Rain Rain
9:51 AM 57.9 °F - 53.1 °F 84% 30.05 in 6.0 mi South 18.4 mph 34.5 mph 0.10 in Rain Rain
10:51 AM 57.9 °F - 54.0 °F 87% 30.03 in 4.0 mi South 27.6 mph 35.7 mph 0.07 in Rain Rain
11:15 AM 59.0 °F - 53.6 °F 82% 30.03 in 10.0 mi South 24.2 mph 35.7 mph 0.02 in Rain Light Rain
11:51 AM 53.6 °F - 51.8 °F 94% 30.05 in 5.0 mi West 13.8 mph - N/A Rain Rain
11:58 AM 53.6 °F - 51.8 °F 94% 30.05 in 5.0 mi West 13.8 mph - 0.01 in Rain Rain
12:31 PM 51.8 °F - 51.8 °F 100% 30.06 in 2.0 mi WNW 15.0 mph - 0.03 in Rain Light Rain
12:51 PM 50.0 °F - 48.9 °F 96% 30.07 in 2.0 mi WNW 9.2 mph 20.7 mph 0.06 in Rain Light Rain
12:58 PM 50.0 °F - 48.2 °F 94% 30.07 in 2.0 mi West 15.0 mph - 0.00 in Rain Light Rain
1:28 PM 46.4 °F 39.8 °F 44.6 °F 93% 30.09 in 2.0 mi WNW 16.1 mph 24.2 mph 0.02 in Rain Light Rain
1:51 PM 46.9 °F - 45.0 °F 93% 30.10 in 2.0 mi WNW 16.1 mph - 0.05 in Rain Rain
2:03 PM 46.4 °F 40.7 °F 44.6 °F 93% 30.09 in 5.0 mi WNW 12.7 mph - 0.03 in Rain Rain
2:51 PM 44.1 °F 36.5 °F 42.1 °F 93% 30.13 in 5.0 mi West 17.3 mph - 0.06 in Rain Rain
3:39 PM 42.8 °F 36.2 °F 39.2 °F 87% 30.15 in 6.0 mi WNW 12.7 mph - 0.05 in Rain Light Rain
3:51 PM 42.1 °F 35.2 °F 39.0 °F 89% 30.16 in 6.0 mi WNW 12.7 mph - 0.06 in Rain Light Rain
4:32 PM 39.2 °F 28.7 °F 37.4 °F 93% 30.20 in 10.0 mi West 23.0 mph 28.8 mph 0.01 in   Overcast
4:51 PM 39.0 °F 29.9 °F 34.0 °F 82% 30.23 in 10.0 mi West 17.3 mph - 0.01 in   Overcast
5:04 PM 37.4 °F 28.5 °F 33.8 °F 87% 30.21 in 10.0 mi West 15.0 mph 21.9 mph N/A   Overcast
5:51 PM 39.0 °F 31.4 °F 35.1 °F 86% 30.24 in 10.0 mi West 12.7 mph - N/A   Mostly Cloudy
6:51 PM 37.9 °F 30.0 °F 33.1 °F 83% 30.27 in 10.0 mi West 12.7 mph - N/A   Scattered Clouds
7:51 PM 37.0 °F 29.8 °F 30.0 °F 76% 30.29 in 10.0 mi WSW 10.4 mph - N/A   Clear
8:51 PM 36.0 °F 27.5 °F 30.9 °F 82% 30.33 in 10.0 mi WSW 12.7 mph - N/A   Clear
9:51 PM 35.1 °F 27.9 °F 30.0 °F 82% 30.35 in 10.0 mi WSW 9.2 mph - N/A   Clear
10:51 PM 34.0 °F 26.0 °F 28.9 °F 82% 30.38 in 10.0 mi West 10.4 mph - N/A   Clear
11:51 PM 34.0 °F 27.2 °F 27.0 °F 75% 30.39 in 10.0 mi West 8.1 mph - N/A   Clear